Home   Weather   Adelaide   Past weeks
Flag for Australia

Past Weather in Adelaide, South Australia, Australia — Yesterday and Last 2 Weeks

Now
56 °F

Cool.


Feels Like: 56 °F
Forecast: 70 / 53 °F
Wind: No wind

Location: Adelaide

Current Time: Apr 2, 2020 at 5:02:55 am

Latest Report: Apr 2, 2020 at 3:30 am


Visibility: N/A

Pressure: 29.88 "Hg

Humidity: 85%

Dew Point: 52 °F

Location of AdelaideLocation

Past Weather in Adelaide — Graph

°F

Adelaide Temperature Yesterday

Maximum temperature yesterday: 72 °F (at 12:30 pm)
Minimum temperature yesterday: 62 °F (at 9:00 pm)
Average temperature yesterday: 67 °F

High & Low Weather Summary for the Past Weeks

 TemperatureHumidityPressure
High93 °F (Mar 18, 3:30 pm)86% (Mar 22, 6:00 am)30.39 "Hg (Mar 22, 6:00 am)
Low51 °F (Mar 27, 6:30 am)12% (Mar 19, 3:30 pm)29.76 "Hg (Mar 29, 3:30 am)
Average67 °F51%30.13 "Hg
* Reported Mar 18 3:30 am — Apr 2 3:30 am, Adelaide. Weather by CustomWeather, © 2020

Note: Actual official high and low records may vary slightly from our data, if they occured in-between our weather recording intervals... More about our weather records

Adelaide Weather History for the Previous 24 Hours

Scroll right to see more
 ConditionsComfort  
Time TempWeatherWind HumidityBarometerVisibility
3:30 am
Thu, Apr 2
56 °FCool.No wind85%29.88 "HgN/A
3:00 am57 °FCool.No wind83%29.88 "HgN/A
12:30 am62 °FCool.2 mph68%29.90 "HgN/A
12:00 am62 °FCool.No wind67%29.91 "HgN/A
9:30 pm
Wed, Apr 1
62 °FCool.6 mph66%29.92 "HgN/A
9:00 pm62 °FCool.7 mph67%29.92 "HgN/A
8:30 pm62 °FMild.6 mph68%29.91 "HgN/A
6:30 pm66 °FMild.6 mph68%29.88 "HgN/A
5:30 pm68 °FMild.8 mph66%29.88 "HgN/A
3:30 pm67 °FMild.3 mph72%29.89 "HgN/A
3:00 pm67 °FMild.5 mph70%29.90 "HgN/A
2:30 pm69 °FMild.7 mph60%29.90 "HgN/A
12:30 pm72 °FMild.7 mph45%29.94 "HgN/A
12:00 pm71 °FMild.7 mph42%29.94 "HgN/A
11:30 am72 °FMild.3 mph38%29.94 "HgN/A
9:30 am68 °FMild.No wind49%29.96 "HgN/A
9:00 am67 °FMild.3 mph51%29.96 "HgN/A
8:30 am67 °FMild.1 mph48%29.94 "HgN/A
6:30 am67 °FMild.5 mph46%29.93 "HgN/A
6:00 am67 °FMild.6 mph48%29.93 "HgN/A
5:30 am65 °FMild.1 mph55%29.94 "HgN/A
Weather by CustomWeather, © 2020

See weather overview

Advertising